This is the latest recevied weather packets stored in our database for station/object PA3DZX-13. If no packets are shown the sender has not sent any weather packets the latest 10 day(s).
| Time | Temp. | Humidity | Pressure | Rain* | Wind** | Luminosity | Snow |
|---|---|---|---|---|---|---|---|
| 1777896527 | 17.78° C | 69% | 1013.2 hPa | 0 mm | - | - | - |
| 1777895626 | 18.89° C | 69% | 1013.2 hPa | 0 mm | - | - | - |
| 1777894726 | 18.89° C | 71% | 1013.2 hPa | 0 mm | - | - | - |
| 1777893826 | 17.78° C | 71% | 1013.4 hPa | 0 mm | - | - | - |
| 1777892926 | 17.78° C | 72% | 1013.4 hPa | 0 mm | - | - | - |
| 1777892025 | 17.78° C | 74% | 1013.4 hPa | 0 mm | - | - | - |
| 1777891124 | 16.67° C | 75% | 1013.4 hPa | 0 mm | - | - | - |
| 1777890224 | 16.67° C | 74% | 1013.4 hPa | 0 mm | - | - | - |
| 1777889323 | 16.67° C | 81% | 1013.5 hPa | 0 mm | - | - | - |
| 1777888422 | 15.56° C | 80% | 1013.5 hPa | 0 mm | - | - | - |
| 1777887523 | 15.56° C | 79% | 1013.5 hPa | 0 mm | - | - | - |
| 1777886622 | 15.56° C | 81% | 1013.5 hPa | 0 mm | - | - | - |
| 1777885722 | 15.56° C | 81% | 1013.3 hPa | 0 mm | - | - | - |
| 1777884822 | 15.56° C | 84% | 1013.3 hPa | 0 mm | - | - | - |
| 1777883921 | 15° C | 86% | 1013.3 hPa | 0 mm | - | - | - |
| 1777883020 | 15° C | 86% | 1013.3 hPa | 0 mm | - | - | - |
| 1777882121 | 15° C | 88% | 1013.2 hPa | 0 mm | - | - | - |
| 1777881219 | 13.89° C | 88% | 1013.1 hPa | 0 mm | - | - | - |
| 1777880319 | 13.89° C | 92% | 1013 hPa | 0 mm | - | - | - |
| 1777879418 | 13.89° C | 93% | 1013 hPa | 0 mm | - | - | - |
| 1777878519 | 12.78° C | 96% | 1013 hPa | 0 mm | - | - | - |
| 1777877618 | 12.78° C | 99% | 1013 hPa | 0 mm | - | - | - |
| 1777876718 | 11.67° C | 99% | 1012.8 hPa | 0 mm | - | - | - |
| 1777875816 | 11.67° C | 99% | 1012.6 hPa | 0 mm | - | - | - |
| 1777874916 | 11.67° C | 99% | 1012.6 hPa | 0 mm | - | - | - |
* Rain latest hour (hover to see other rain measurements)
** Current wind speed in m/s (hover to see current wind gust speed)